Flag for Germany Weather past 2 weeks in Erlangen, Bavaria, Germany

Now
66 °F

Passing clouds.


Feels Like: 66 °F
Forecast: 46 / 73 °F
Wind: 7 mph from Northwest

Location: Nuernberg

Current Time: Jul 30, 2015 at 6:53:45 PM

Latest Report: Jul 30, 2015 at 6:20 PM


Visibility: N/A

Pressure: 29.98 "Hg

Humidity: 37%

Dew point: 39 °F

Location of ErlangenLocation

Historic Weather in Erlangen — Graph

°F

Erlangen temperature yesterday

Maximum temperature yesterday: 63 °F (at 6:20 PM)
Minimum temperature yesterday: 55 °F (at 2:50 AM)
Average temperature yesterday: 58 °F

Past Weeks' High & Low Weather Summary

 TemperatureHumidityPressure
High97 °F (Jul 17, 4:50 PM)100% (Jul 23, 1:50 AM)30.09 "Hg (Jul 23, 1:50 AM)
Low50 °F (Jul 30, 1:50 AM)21% (Jul 17, 1:20 PM)29.68 "Hg (Jul 25, 12:50 AM)
Average71 °F60%29.94 "Hg
* Reported Jul 15 5:20 PM — Jul 30 5:20 PM, Erlangen, Weather by CustomWeather, © 2015

Note: Actual official high and low records may vary slightly from our data, if they occured in-between our weather recording intervals... More about our weather records

Advertising

Erlangen weather history for previous 24 hours

 ConditionsComfort  
Time TempWeatherWind HumidityBarometerVisibility
5:20 PM
Thu, Jul 30
70 °FPassing clouds.12 mph35%29.98 "HgN/A
4:50 PM68 °FSunny.15 mph35%29.98 "Hg10 mi
4:20 PM70 °FPassing clouds.20 mph33%29.98 "HgN/A
3:50 PM68 °FPassing clouds.14 mph33%29.98 "HgN/A
3:20 PM66 °FPassing clouds.10 mph35%29.98 "HgN/A
2:50 PM70 °FPassing clouds.12 mph35%29.98 "HgN/A
2:20 PM68 °FSunny.13 mph38%29.98 "Hg10 mi
1:50 PM64 °FSunny.15 mph43%29.98 "Hg10 mi
1:20 PM64 °FSunny.10 mph43%29.98 "Hg10 mi
12:50 PM64 °FPassing clouds.13 mph46%29.98 "HgN/A
12:20 PM64 °FPassing clouds.14 mph43%29.98 "HgN/A
11:50 AM66 °FPassing clouds.13 mph43%29.98 "HgN/A
11:20 AM66 °FPassing clouds.12 mph46%29.98 "HgN/A
10:20 AM64 °FScattered clouds.8 mph56%29.98 "HgN/A
9:50 AM63 °FScattered clouds.5 mph59%30.01 "HgN/A
9:20 AM59 °FScattered clouds.3 mph68%29.98 "HgN/A
8:50 AM59 °FScattered clouds.6 mph63%29.98 "HgN/A
8:20 AM55 °FScattered clouds.5 mph82%29.98 "HgN/A
7:50 AM54 °FScattered clouds.5 mph82%29.98 "HgN/A
7:20 AM54 °FScattered clouds.5 mph82%29.98 "HgN/A
6:50 AM52 °FScattered clouds.3 mph88%29.98 "HgN/A
6:20 AM50 °FFog.1 mph88%29.98 "HgN/A
5:50 AM50 °FClear.1 mph88%29.98 "Hg10 mi
5:20 AM52 °FClear.1 mph82%29.98 "Hg10 mi
4:50 AM50 °FClear.1 mph88%29.98 "Hg10 mi
4:20 AM50 °FClear.2 mph88%29.98 "Hg10 mi
3:50 AM52 °FClear.1 mph82%29.98 "Hg10 mi
3:20 AM50 °FClear.2 mph88%29.98 "Hg10 mi
2:50 AM52 °FClear.3 mph82%29.98 "Hg10 mi
2:20 AM52 °FClear.1 mph88%29.98 "Hg10 mi
1:50 AM50 °FClear.1 mph94%29.98 "Hg10 mi
1:20 AM52 °FClear.2 mph88%29.98 "Hg10 mi
12:50 AM54 °FClear.1 mph82%29.95 "Hg10 mi
12:20 AM55 °FClear.1 mph77%29.95 "Hg10 mi
11:50 PM
Wed, Jul 29
55 °FClear.7 mph77%29.95 "Hg10 mi
11:20 PM55 °FClear.9 mph77%29.92 "Hg10 mi
10:50 PM57 °FClear.9 mph72%29.92 "Hg10 mi
10:20 PM57 °FClear.7 mph72%29.92 "Hg10 mi
9:50 PM59 °FSunny.8 mph68%29.89 "Hg10 mi
9:20 PM59 °FPassing clouds.3 mph68%29.89 "HgN/A
8:50 PM61 °FPassing clouds.8 mph63%29.89 "HgN/A
8:20 PM61 °FSunny.10 mph63%29.86 "Hg10 mi
7:50 PM63 °FScattered clouds.12 mph56%29.86 "HgN/A
7:20 PM63 °FScattered clouds.15 mph59%29.86 "HgN/A
6:50 PM63 °FScattered clouds.16 mph64%29.86 "HgN/A
6:20 PM63 °FScattered clouds.16 mph64%29.86 "HgN/A
Weather by CustomWeather, © 2015

See weather overviewHow to use our weather pages